Crosby, ND

7:14 PM CST on February 25, 2017 (GMT -0600)
Crosby

Weather History for KD50 - October, 2012

Change the Weather History Date:

Tuesday, October 2, 2012

  Actual Average (KISN) Record (KISN)
Temperature  
Mean Temperature 54 °F -  
Max Temperature 66 °F 64 °F 92 °F (1957)
Min Temperature 41 °F 39 °F 14 °F (2002)
Degree Days  
Heating Degree Days 12    
Growing Degree Days 4 (Base 50)    
Moisture  
Dew Point 36 °F    
Average Humidity 50    
Maximum Humidity 76    
Minimum Humidity 37    
Precipitation  
Precipitation 0.00 in - - ()
Sea Level Pressure  
Sea Level Pressure 29.70 in    
Wind  
Wind Speed 18 mph (WNW)    
Max Wind Speed 25 mph    
Max Gust Speed 34 mph    
Visibility 10 miles    
Events      
Averages and records for this station are not official NWS values.
T = Trace of Precipitation, MM = Missing Value Source: NWS Daily Summary

Daily Weather History Graph

Daily Weather History Graph

Search for Another Location

Airport or City:

Trip Planner

Search our weather history database for the weather conditions in past years. The results will help you decide how hot, cold, wet, or windy it might be!

Date:

Astronomy

Oct. 02, 2012 Rise Set
Actual Time 7:55 AM CDT 7:28 PM CDT
Civil Twilight 7:23 AM CDT 8:00 PM CDT
Nautical Twilight 6:46 AM CDT 8:36 PM CDT
Astronomical Twilight 6:09 AM CDT 9:14 PM CDT
Moon 8:24 PM CDT (10/2) 10:41 AM CDT (10/2)
Length of Visible Light 12h 36m
Length of Day
11h 33m
Waning Gibbous, 94% of the Moon is Illuminated
Oct 2
Waning Gibbous
Oct 8
Last Quarter
Oct 15
New
Oct 21
First Quarter
Oct 29
Full

Hourly Weather History & Observations

Time (CDT) Temp. Windchill Dew Point Humidity Pressure Visibility Wind Dir Wind Speed Gust Speed Precip Events Conditions
12:15 AM 57.2 °F - 32.0 °F 38% 29.71 in 10.0 mi South 20.7 mph 28.8 mph N/A   Clear
12:35 AM 55.4 °F - 32.0 °F 41% 29.70 in 10.0 mi South 19.6 mph 25.3 mph N/A   Clear
12:55 AM 55.4 °F - 32.0 °F 41% 29.69 in 10.0 mi South 18.4 mph 23.0 mph N/A   Clear
1:35 AM 55.4 °F - 32.0 °F 41% 29.66 in 10.0 mi South 18.4 mph 27.6 mph N/A   Clear
2:15 AM 53.6 °F - 32.0 °F 44% 29.63 in 10.0 mi South 18.4 mph 23.0 mph N/A   Clear
2:35 AM 53.6 °F - 32.0 °F 44% 29.62 in 10.0 mi South 19.6 mph 24.2 mph N/A   Clear
2:55 AM 53.6 °F - 32.0 °F 44% 29.60 in 10.0 mi South 17.3 mph 25.3 mph N/A   Clear
3:15 AM 53.6 °F - 32.0 °F 44% 29.59 in 10.0 mi South 17.3 mph 24.2 mph N/A   Clear
3:35 AM 53.6 °F - 32.0 °F 44% 29.58 in 10.0 mi South 15.0 mph - N/A   Clear
3:55 AM 53.6 °F - 32.0 °F 44% 29.56 in 10.0 mi SSW 18.4 mph 23.0 mph N/A   Clear
4:15 AM 53.6 °F - 30.2 °F 41% 29.56 in 10.0 mi SSW 18.4 mph 24.2 mph N/A   Clear
4:35 AM 55.4 °F - 30.2 °F 38% 29.55 in 10.0 mi SSW 16.1 mph 24.2 mph N/A   Clear
4:55 AM 55.4 °F - 30.2 °F 38% 29.56 in 10.0 mi SSW 19.6 mph 25.3 mph N/A   Clear
5:15 AM 53.6 °F - 30.2 °F 41% 29.55 in 10.0 mi SSW 17.3 mph 25.3 mph N/A   Clear
5:35 AM 53.6 °F - 30.2 °F 41% 29.55 in 10.0 mi SSW 15.0 mph 21.9 mph N/A   Clear
5:55 AM 50.0 °F - 32.0 °F 50% 29.55 in 10.0 mi SW 12.7 mph - N/A   Clear
6:15 AM 48.2 °F - 32.0 °F 54% 29.56 in 10.0 mi SW 10.4 mph - N/A   Clear
6:35 AM 50.0 °F - 32.0 °F 50% 29.57 in 10.0 mi West 13.8 mph - N/A   Clear
6:55 AM 53.6 °F - 35.6 °F 51% 29.59 in 10.0 mi West 17.3 mph 23.0 mph N/A   Clear
7:15 AM 50.0 °F - 37.4 °F 62% 29.58 in 10.0 mi West 13.8 mph - N/A   Clear
7:35 AM 50.0 °F - 39.2 °F 66% 29.59 in 10.0 mi West 16.1 mph - N/A   Clear
7:55 AM 50.0 °F - 39.2 °F 66% 29.60 in 10.0 mi West 15.0 mph - N/A   Clear
8:15 AM 48.2 °F - 39.2 °F 71% 29.62 in 10.0 mi West 17.3 mph - N/A   Clear
8:35 AM 50.0 °F - 41.0 °F 71% 29.62 in 10.0 mi West 16.1 mph 21.9 mph N/A   Clear
8:55 AM 50.0 °F - 41.0 °F 71% 29.63 in 10.0 mi West 16.1 mph 20.7 mph N/A   Clear
9:15 AM 51.8 °F - 41.0 °F 67% 29.63 in 10.0 mi West 12.7 mph - N/A   Clear
9:35 AM 53.6 °F - 41.0 °F 62% 29.65 in 10.0 mi WNW 17.3 mph 23.0 mph N/A   Clear
9:55 AM 55.4 °F - 39.2 °F 54% 29.66 in 10.0 mi NW 23.0 mph 27.6 mph N/A   Clear
10:15 AM 57.2 °F - 39.2 °F 51% 29.67 in 10.0 mi NW 21.9 mph 28.8 mph N/A   Clear
10:35 AM 57.2 °F - 39.2 °F 51% 29.68 in 10.0 mi WNW 23.0 mph 29.9 mph N/A   Scattered Clouds
10:55 AM 59.0 °F - 39.2 °F 48% 29.68 in 10.0 mi WNW 21.9 mph 27.6 mph N/A   Scattered Clouds
11:15 AM 59.0 °F - 39.2 °F 48% 29.69 in 10.0 mi NW 23.0 mph 29.9 mph N/A   Mostly Cloudy
11:35 AM 60.8 °F - 39.2 °F 45% 29.69 in 10.0 mi WNW 21.9 mph 31.1 mph N/A   Partly Cloudy
11:55 AM 62.6 °F - 39.2 °F 42% 29.70 in 10.0 mi WNW 21.9 mph 32.2 mph N/A   Clear
12:15 PM 62.6 °F - 39.2 °F 42% 29.70 in 10.0 mi WNW 20.7 mph 29.9 mph N/A   Clear
12:35 PM 64.4 °F - 39.2 °F 40% 29.70 in 10.0 mi NW 17.3 mph 28.8 mph N/A   Clear
12:55 PM 64.4 °F - 39.2 °F 40% 29.71 in 10.0 mi NW 24.2 mph 29.9 mph N/A   Clear
1:15 PM 64.4 °F - 41.0 °F 42% 29.71 in 10.0 mi NW 19.6 mph 28.8 mph N/A   Partly Cloudy
1:35 PM 62.6 °F - 41.0 °F 45% 29.71 in 10.0 mi WNW 20.7 mph 34.5 mph N/A   Scattered Clouds
1:55 PM 64.4 °F - 39.2 °F 40% 29.71 in 10.0 mi WNW 25.3 mph 33.4 mph N/A   Scattered Clouds
2:15 PM 64.4 °F - 41.0 °F 42% 29.71 in 10.0 mi WNW 21.9 mph 32.2 mph N/A   Mostly Cloudy
2:35 PM 66.2 °F - 41.0 °F 40% 29.71 in 10.0 mi NW 24.2 mph 32.2 mph N/A   Scattered Clouds
2:55 PM 64.4 °F - 41.0 °F 42% 29.72 in 10.0 mi WNW 21.9 mph 29.9 mph N/A   Partly Cloudy
3:15 PM 62.6 °F - 39.2 °F 42% 29.73 in 10.0 mi WNW 20.7 mph 31.1 mph N/A   Partly Cloudy
3:35 PM 64.4 °F - 39.2 °F 40% 29.73 in 10.0 mi NW 21.9 mph 28.8 mph N/A   Scattered Clouds
3:55 PM 64.4 °F - 39.2 °F 40% 29.73 in 10.0 mi WNW 25.3 mph 29.9 mph N/A   Partly Cloudy
4:15 PM 64.4 °F - 37.4 °F 37% 29.74 in 10.0 mi NW 21.9 mph 32.2 mph N/A   Clear
4:35 PM 64.4 °F - 37.4 °F 37% 29.75 in 10.0 mi NW 20.7 mph 28.8 mph N/A   Partly Cloudy
4:55 PM 62.6 °F - 37.4 °F 39% 29.75 in 10.0 mi NW 18.4 mph 28.8 mph N/A   Scattered Clouds
5:15 PM 64.4 °F - 37.4 °F 37% 29.75 in 10.0 mi NW 21.9 mph 26.5 mph N/A   Partly Cloudy
5:35 PM 64.4 °F - 37.4 °F 37% 29.76 in 10.0 mi WNW 19.6 mph 25.3 mph N/A   Clear
5:55 PM 62.6 °F - 39.2 °F 42% 29.77 in 10.0 mi NW 17.3 mph 25.3 mph N/A   Partly Cloudy
6:15 PM 62.6 °F - 37.4 °F 39% 29.77 in 10.0 mi NW 20.7 mph 26.5 mph N/A   Scattered Clouds
6:35 PM 60.8 °F - 37.4 °F 42% 29.78 in 10.0 mi NW 16.1 mph 21.9 mph N/A   Partly Cloudy
7:15 PM 57.2 °F - 35.6 °F 44% 29.80 in 10.0 mi NW 11.5 mph 19.6 mph N/A   Clear
7:35 PM 55.4 °F - 35.6 °F 47% 29.81 in 10.0 mi NW 10.4 mph - N/A   Clear
7:55 PM 53.6 °F - 37.4 °F 54% 29.82 in 10.0 mi NW 11.5 mph 18.4 mph N/A   Clear
8:15 PM 50.0 °F - 35.6 °F 58% 29.82 in 10.0 mi NW 9.2 mph - N/A   Clear
8:35 PM 51.8 °F - 37.4 °F 58% 29.84 in 10.0 mi NW 12.7 mph - N/A   Clear
8:55 PM 50.0 °F - 37.4 °F 62% 29.84 in 10.0 mi NNW 13.8 mph 19.6 mph N/A   Clear
9:15 PM 48.2 °F - 37.4 °F 66% 29.83 in 10.0 mi NNW 13.8 mph 18.4 mph N/A   Clear
9:35 PM 46.4 °F 40.7 °F 37.4 °F 71% 29.86 in 10.0 mi NNW 12.7 mph 21.9 mph N/A   Clear
9:55 PM 46.4 °F 40.4 °F 37.4 °F 71% 29.86 in 10.0 mi NNW 13.8 mph 17.3 mph N/A   Clear
10:15 PM 44.6 °F 39.2 °F 35.6 °F 71% 29.87 in 10.0 mi NNW 10.4 mph - N/A   Clear
10:35 PM 44.6 °F 37.8 °F 35.6 °F 71% 29.87 in 10.0 mi NNW 15.0 mph - N/A   Clear
10:55 PM 44.6 °F 38.4 °F 33.8 °F 66% 29.87 in 10.0 mi NNW 12.7 mph - N/A   Clear
11:15 PM 41.0 °F 34.3 °F 33.8 °F 76% 29.89 in 10.0 mi NW 11.5 mph - N/A   Clear
11:35 PM 41.0 °F 34.7 °F 32.0 °F 70% 29.89 in 10.0 mi NW 10.4 mph - N/A   Clear
11:55 PM 41.0 °F 33.9 °F 32.0 °F 70% 29.91 in 10.0 mi NW 12.7 mph - N/A   Clear